QFA105 YSSY-PHNL

Flight info

Callsign QFA105
Flight time N/A
Altitude 35000
Route TESAT G595 ATNAT DCT DUDEP Y70 BISAB J328 MISLY DCT RUMIX DCT NILAX/N0493F370 DCT NA DCT IDEMU A579 CEBUR/N0487F390 A579 CROBY DCT 16N162W DCT BARKR/N0481F400 DCT CHOKO OPACA4
Aircraft A35K/H-SDE2E3GHIJ3J4J5LM1ORWXY/LB1D1

Departure

Time 2026-05-01 13:34
Airport Sydney Kingsford Smith International Airport (YSSY)

Arrival

Time N/A
Airport Daniel K. Inouye International Airport (PHNL)
Time Latitude Longitude Altitude Speed Heading
2026-05-01 13:34 -34.13782 151.48363 10871 ft 332 kts 83°
2026-05-01 13:34 -34.13412 151.54120 11345 ft 359 kts 83°
2026-05-01 13:35 -34.13007 151.60313 11944 ft 378 kts 84°
2026-05-01 13:35 -34.12798 151.63488 12265 ft 383 kts 84°
2026-05-01 13:35 -34.12371 151.69912 12353 ft 385 kts 84°
2026-05-01 13:36 -34.12154 151.73147 12353 ft 385 kts 84°
2026-05-01 13:36 -34.11936 151.76369 12451 ft 387 kts 84°
2026-05-01 13:36 -34.11492 151.82877 13462 ft 390 kts 84°
2026-05-01 13:37 -34.11267 151.86149 13943 ft 393 kts 84°
2026-05-01 13:37 -34.11040 151.89450 14369 ft 396 kts 85°
2026-05-01 13:37 -34.10810 151.92779 14818 ft 398 kts 84°
2026-05-01 13:37 -34.10580 151.96107 15256 ft 400 kts 84°
2026-05-01 13:38 -34.10112 152.02816 16097 ft 404 kts 84°
2026-05-01 13:38 -34.09873 152.06215 16547 ft 406 kts 84°
2026-05-01 13:38 -34.09633 152.09615 16978 ft 408 kts 84°
2026-05-01 13:39 -34.09392 152.13035 17389 ft 410 kts 84°
2026-05-01 13:39 -34.09149 152.16462 17820 ft 411 kts 84°
2026-05-01 13:39 -34.08903 152.19915 18241 ft 413 kts 84°
2026-05-01 13:39 -34.08654 152.23391 18641 ft 416 kts 84°
2026-05-01 13:40 -34.08405 152.26866 19003 ft 417 kts 84°
2026-05-01 13:40 -34.08155 152.30330 19302 ft 421 kts 84°
2026-05-01 13:40 -34.07899 152.33867 19611 ft 424 kts 84°
2026-05-01 13:40 -34.07641 152.37420 19938 ft 427 kts 85°
2026-05-01 13:41 -34.07379 152.41006 20270 ft 430 kts 85°
2026-05-01 13:41 -34.07116 152.44605 20606 ft 432 kts 85°
2026-05-01 13:41 -34.06850 152.48221 20932 ft 435 kts 85°
2026-05-01 13:41 -34.06580 152.51881 21261 ft 438 kts 85°
2026-05-01 13:42 -34.06307 152.55559 21601 ft 441 kts 85°
2026-05-01 13:42 -34.06032 152.59250 21919 ft 444 kts 85°
2026-05-01 13:42 -34.05754 152.62969 22262 ft 447 kts 85°
2026-05-01 13:42 -34.05476 152.66666 22619 ft 449 kts 85°
2026-05-01 13:43 -34.05194 152.70404 22977 ft 452 kts 85°
2026-05-01 13:43 -34.04906 152.74209 23337 ft 455 kts 85°
2026-05-01 13:43 -34.04617 152.78014 23714 ft 458 kts 85°
2026-05-01 13:43 -34.04325 152.81842 24076 ft 460 kts 85°
2026-05-01 13:44 -34.04029 152.85699 24429 ft 463 kts 85°
2026-05-01 13:44 -34.03731 152.89567 24812 ft 465 kts 85°
2026-05-01 13:44 -34.03431 152.93455 25197 ft 467 kts 85°
2026-05-01 13:44 -34.03122 152.97360 25597 ft 469 kts 85°
2026-05-01 13:45 -34.02881 153.00431 25904 ft 470 kts 85°
2026-05-01 13:45 -34.02660 153.03279 26184 ft 472 kts 85°
2026-05-01 13:45 -34.02537 153.04854 26330 ft 473 kts 85°
2026-05-01 13:45 -34.02230 153.08797 26713 ft 475 kts 85°
2026-05-01 13:46 -34.01917 153.12790 27101 ft 477 kts 85°
2026-05-01 13:46 -34.01603 153.16775 27470 ft 480 kts 85°
2026-05-01 13:46 -34.01284 153.20787 27853 ft 482 kts 85°
2026-05-01 13:46 -34.00962 153.24815 28203 ft 484 kts 85°
2026-05-01 13:47 -34.00637 153.28875 28566 ft 486 kts 85°